Zurück zum Katalog

YAOGAN-46

AktivMilitärMEO
NORAD 66313·PAYLOAD·🇨🇳 China

Gestartet Nov 3, 2025 von Wenchang Space Launch Site

Loading…

Nächste Überflüge (nächste 24 Stunden)

TLE

AktuellSource: Space-Track

Epoche: Sep 14, 2026, 12:36 UTC

1 66313U 25250A   26257.52527804 -.00000026  00000-0  00000-0 0  9997
2 66313  20.0590 282.6316 0005207 255.6170 104.3409  5.31209588 16846

Verfolge YAOGAN-46 in Echtzeit mit AllMySat

Download on the App Store